Theta_e
316 317 319 318 318 319 320 320 321 321 316 315 317 317 318 318 317 317 316 315 314 312 311 313 311 309 306 304 304 306 308 308 308 308 307 306 307 309 310 311 310 309 307 307
316 317 318 320 316 319 320 319 321 321 315 313 316 317 316 316 316 315 313 315 314 314 311 310 309 307 305 304 305 308 308 308 308 307 307 306 308 310 312 312 310 307 307 307
319 318 316 318 316 317 317 319 325 323 318 316 316 320 326 321 315 314 314 313 312 313 311 309 307 306 305 304 307 308 308 308 307 307 307 308 310 312 312 312 309 308 307 307
316 315 315 315 316 316 318 317 319 320 318 321 316 319 320 320 320 314 313 313 312 311 311 309 306 306 305 306 307 308 308 308 307 307 307 308 309 311 312 312 310 309 309 309
315 315 315 317 317 316 318 314 316 316 316 317 319 317 320 325 322 318 312 313 312 310 310 308 306 306 305 306 309 308 308 308 307 307 307 308 309 310 313 313 311 310 310 310
313 311 313 315 312 314 313 314 315 315 315 318 318 321 323 327 322 315 315 313 312 310 309 307 307 305 305 307 308 308 309 308 307 307 307 307 308 310 312 313 314 313 313 315
312 312 311 311 313 312 314 316 322 324 318 321 315 316 319 320 313 313 314 312 310 309 307 306 302 302 305 306 308 308 308 308 307 307 307 308 309 310 311 312 314 316 317 318
314 316 312 310 314 314 314 316 323 323 329 320 313 314 317 315 311 309 312 311 310 308 307 304 302 302 304 306 308 308 308 308 307 307 307 308 310 310 310 312 314 316 318 319
316 316 309 310 310 312 314 313 313 315 309 315 313 314 315 311 312 309 312 311 309 308 306 304 302 302 304 305 307 308 308 307 306 306 307 308 310 310 310 312 313 315 316 318
313 316 310 309 308 309 310 310 312 312 315 322 317 315 317 314 311 310 309 311 309 308 306 304 302 301 303 304 306 307 307 307 307 306 306 307 309 311 310 310 313 314 315 316
311 314 312 309 310 311 309 311 311 314 315 321 322 320 313 313 312 310 309 309 310 308 306 304 302 302 302 304 306 307 307 307 306 306 306 307 309 310 310 309 311 312 314 316
312 315 316 313 309 308 310 310 311 315 318 313 314 315 311 309 309 309 310 310 309 308 306 304 302 301 301 303 304 306 307 307 307 305 305 305 308 309 309 309 310 311 312 314
312 314 315 317 310 308 310 310 310 311 311 314 316 317 309 308 307 307 309 309 309 308 307 304 302 300 299 301 303 305 306 307 307 305 305 304 306 307 308 308 308 310 312 312
311 313 315 318 316 310 310 310 310 311 313 313 315 316 314 311 310 308 307 308 308 307 307 305 303 300 300 301 302 305 306 307 307 305 305 304 306 307 307 306 306 308 310 311
310 313 313 311 312 311 311 310 310 310 311 314 316 314 314 314 311 310 307 308 308 307 307 306 304 301 300 300 301 304 305 306 307 305 305 304 304 306 306 306 306 308 308 308
309 313 310 310 311 311 310 310 310 310 310 311 312 312 311 311 310 309 309 308 307 307 306 305 305 303 300 300 300 302 305 306 306 305 304 304 305 305 305 306 306 306 307 307
309 311 311 319 310 311 316 314 311 311 311 311 312 311 310 310 309 309 310 309 308 306 306 305 304 304 303 301 300 301 304 306 305 304 304 304 304 305 305 305 304 304 304 304
308 310 312 317 311 317 314 305 311 312 304 301 304 304 303 302 302 304 307 308 308 308 306 305 304 304 305 303 301 300 303 305 304 304 303 303 303 304 304 303 303 302 302 303
304 309 314 316 316 314 312 302 302 305 302 298 297 298 298 298 302 306 302 302 304 303 303 303 304 305 305 305 303 300 302 304 303 302 302 302 302 304 303 303 302 301 301 301
306 307 311 316 317 320 301 296 297 299 303 295 296 295 296 298 305 302 298 300 300 299 299 299 301 302 302 302 302 300 301 303 301 301 301 301 302 303 303 304 303 302 301 302
306 307 310 312 315 305 296 296 298 310 299 294 294 293 293 294 296 294 294 295 294 294 294 293 296 298 298 299 301 299 299 302 303 301 301 301 301 302 304 304 302 302 300 299
301 300 301 301 309 308 294 294 295 294 294 293 292 292 291 291 292 291 291 291 290 290 290 289 291 293 293 293 296 297 298 300 301 302 301 300 300 300 301 302 301 300 300 298
299 295 295 297 298 296 294 293 292 292 292 292 292 291 290 290 290 289 289 289 288 287 287 286 287 288 289 288 290 292 294 296 298 300 300 300 299 298 299 299 299 297 297 297
294 291 292 292 296 296 294 292 291 291 290 290 289 288 288 288 288 287 287 287 286 285 285 284 284 284 285 284 286 287 289 291 294 298 300 299 298 297 297 297 297 296 295 293
287 289 291 292 293 294 294 290 288 288 288 286 285 285 285 285 286 285 284 285 284 283 283 283 282 282 282 281 283 284 285 287 290 294 298 298 297 296 295 295 295 295 297 297
288 288 288 292 289 290 290 287 284 284 284 284 281 281 281 282 283 282 281 281 281 280 280 280 279 279 280 280 280 281 282 284 286 289 292 295 295 295 294 294 293 294 295 295
Wind_Speed
6 5 7 11 11 8 8 6 9 8 4 1 7 17 18 17 13 12 10 9 10 10 10 20 19 16 13 9 6 2 3 5 6 7 11 12 14 11 15 14 8 4 3 4
4 9 10 9 2 4 7 5 7 7 7 1 9 16 23 21 12 3 5 5 9 8 10 11 23 17 13 12 6 2 2 3 4 5 8 5 12 13 13 13 4 4 7 6
6 2 1 6 4 5 5 6 3 5 7 9 9 10 6 2 2 3 1 4 5 3 11 11 12 18 14 11 8 3 1 2 2 6 7 7 9 11 14 13 5 4 7 7
7 7 4 4 5 7 6 3 8 2 3 4 0 6 7 8 6 7 7 7 5 4 7 9 9 15 15 12 8 4 1 1 2 6 7 6 9 8 11 7 4 4 7 5
4 2 5 6 4 8 2 3 2 2 4 6 2 1 8 8 5 5 6 7 7 7 7 9 9 17 15 11 9 5 3 1 2 5 5 5 8 11 10 8 6 5 8 10
1 2 3 1 6 6 9 3 3 3 3 2 7 6 5 3 2 3 4 6 7 7 7 9 15 16 13 11 8 6 4 3 2 4 5 3 6 9 10 8 7 7 9 12
6 5 2 1 5 2 3 3 1 3 1 6 3 2 10 4 4 6 9 9 8 7 8 8 9 10 15 13 10 7 5 5 4 3 5 2 5 5 8 7 6 6 9 9
9 4 11 7 4 6 8 5 4 6 4 1 3 6 7 3 5 6 8 9 8 8 8 8 8 13 15 14 11 8 6 6 6 4 4 3 4 3 5 5 5 8 9 9
7 4 5 4 3 2 6 6 1 1 2 2 5 7 8 4 4 5 8 9 9 8 8 9 9 15 16 14 13 10 8 6 6 5 5 5 4 4 2 4 5 5 6 8
4 1 1 3 3 3 2 1 3 2 3 5 6 6 6 5 8 8 8 9 9 9 9 8 8 14 16 15 13 11 9 6 7 6 6 6 6 5 4 3 7 6 7 9
3 3 3 5 8 9 3 3 4 2 4 4 2 5 2 2 2 10 9 10 10 10 9 8 7 16 16 15 14 12 11 8 8 7 8 8 9 7 6 4 6 7 7 9
10 2 4 7 3 1 6 6 7 4 4 4 3 6 2 5 3 3 7 9 9 9 9 9 8 15 17 17 16 15 13 12 10 10 9 9 11 10 8 7 6 5 7 8
6 4 3 2 1 2 6 7 9 5 2 6 5 4 1 3 1 4 5 7 8 9 10 9 8 8 15 19 19 18 16 15 13 11 12 11 11 12 11 10 8 8 8 7
7 1 7 5 1 4 5 9 13 11 5 3 16 6 2 2 4 5 5 6 7 7 8 8 8 9 17 22 22 20 18 17 16 13 12 12 12 13 12 12 11 9 10 11
2 3 3 13 3 1 4 6 13 19 19 10 4 12 9 4 4 4 7 5 6 7 8 9 9 8 12 19 23 23 21 21 19 16 15 15 14 14 14 13 12 12 12 12
4 2 0 4 9 5 5 8 11 17 19 19 17 21 14 7 6 5 3 6 7 8 9 8 8 8 9 17 21 24 25 24 23 21 19 16 16 16 16 15 14 13 14 14
4 4 2 4 2 5 6 15 16 9 7 11 15 14 12 16 16 12 8 8 8 9 8 9 10 11 16 20 24 25 27 25 26 25 22 21 19 18 17 17 15 15 14 14
2 3 2 1 3 6 2 11 6 12 15 17 14 16 15 16 16 13 9 13 10 7 6 7 7 10 20 24 24 26 26 28 30 28 27 25 23 21 18 18 18 16 15 16
12 3 3 3 4 6 5 8 7 7 9 15 15 17 18 21 13 6 23 15 15 10 10 8 10 5 5 21 26 27 27 28 29 28 30 30 27 25 23 21 20 18 17 16
9 7 3 3 4 4 5 13 10 8 5 15 15 17 17 18 7 9 25 18 17 17 20 21 21 14 12 10 18 23 25 25 23 27 30 31 30 28 28 26 24 22 20 19
3 1 10 10 6 4 10 14 7 4 5 11 12 13 14 11 9 14 17 18 23 23 26 29 24 19 20 16 9 18 20 21 27 26 25 29 30 30 29 28 27 25 22 19
4 3 2 3 3 3 14 6 7 2 4 6 8 9 11 11 14 15 15 16 18 19 26 29 24 23 25 26 17 10 12 16 19 20 25 29 30 30 28 28 26 24 24 23
1 2 2 4 2 5 8 12 6 3 1 4 6 7 7 10 12 15 14 14 15 20 22 25 23 22 24 29 28 21 18 15 16 20 25 29 29 29 29 29 29 26 26 26
2 2 1 3 3 5 6 6 3 0 2 5 6 9 9 10 10 12 11 11 11 19 21 23 24 22 23 27 26 25 26 19 17 20 24 26 28 29 30 30 31 31 31 29
3 3 2 3 1 0 6 5 3 4 2 5 7 8 9 11 10 9 12 12 14 18 20 21 21 21 22 26 26 28 27 26 19 17 20 24 26 29 31 33 34 35 36 37
3 3 2 1 3 2 2 5 5 5 8 8 8 12 12 12 12 11 11 17 17 18 20 20 23 23 24 24 28 30 28 26 23 19 17 19 22 25 26 29 30 32 35 35
Wind_Direction
200 201 207 208 216 256 317 318 295 306 102 283 241 270 278 275 265 262 249 226 206 181 172 165 149 150 156 179 185 205 342 339 346 354 8 5 9 357 351 5 345 7 15 67
149 233 224 224 343 290 247 277 285 292 104 61 279 279 281 274 263 229 320 272 192 154 150 132 136 148 171 181 179 151 19 336 352 6 23 353 341 343 357 2 35 47 93 98
209 73 203 190 170 221 221 222 227 248 337 236 278 281 292 229 131 192 130 42 34 52 144 138 137 156 176 179 169 142 56 345 350 29 33 13 16 359 18 31 51 74 102 117
239 233 152 150 218 196 251 338 201 264 312 259 2 287 297 273 242 191 191 168 176 239 127 142 141 161 176 169 168 145 124 89 20 47 43 23 2 355 359 13 63 127 119 117
226 192 171 198 183 189 178 49 117 227 245 312 203 73 268 268 285 225 167 163 164 181 164 145 146 165 169 165 158 155 146 140 54 70 55 31 16 19 37 42 98 125 143 134
308 320 269 262 61 44 124 130 195 234 227 284 233 167 286 244 199 133 127 149 159 170 149 135 153 153 156 169 160 160 161 153 87 85 81 42 39 25 45 58 60 125 127 127
185 191 103 196 93 56 207 157 287 336 1 229 109 155 246 289 206 191 176 166 165 166 138 146 148 158 170 173 172 171 163 154 143 107 99 71 75 42 60 62 56 102 143 143
177 211 160 183 205 180 184 200 180 222 210 276 114 230 250 181 80 93 136 147 153 161 157 160 169 180 176 176 179 180 170 161 162 146 125 124 107 88 53 77 96 101 124 127
187 207 55 154 37 126 182 215 301 341 60 48 225 261 300 124 143 148 151 150 170 176 172 173 177 182 177 179 185 186 180 173 182 170 154 149 147 136 129 105 140 131 114 124
299 136 167 96 10 269 284 233 97 293 194 253 242 232 236 225 226 191 189 181 177 177 180 178 178 180 181 184 186 191 190 182 190 187 177 172 177 164 164 139 149 147 152 150
206 223 129 115 206 183 166 208 234 204 217 201 302 258 237 111 141 191 191 189 182 181 180 179 176 184 186 183 185 193 194 189 190 195 189 186 181 178 177 176 163 147 156 165
205 282 203 195 121 338 245 210 189 160 226 237 149 255 173 123 96 70 180 185 182 174 172 172 174 179 187 188 190 196 198 196 199 194 194 201 191 194 191 185 196 189 177 171
154 217 138 273 360 189 216 206 230 249 70 220 155 263 342 105 188 228 250 173 169 167 169 172 173 184 189 196 197 199 201 202 198 196 192 204 197 196 202 195 195 199 205 208
356 210 232 194 91 115 195 196 207 205 201 151 228 262 26 262 247 214 238 182 180 176 176 179 182 188 193 200 201 199 201 203 199 197 193 199 204 206 207 201 197 197 206 215
51 253 289 279 249 212 209 189 204 214 217 198 262 231 246 281 350 218 192 184 175 195 202 204 201 195 192 198 204 202 201 200 199 196 197 204 202 206 208 206 204 210 214 210
167 285 214 267 239 251 237 228 209 227 236 257 275 282 285 317 354 348 149 171 207 217 221 212 201 192 198 203 204 204 203 199 197 198 198 201 202 204 209 214 213 210 207 206
194 183 195 259 144 100 276 241 222 209 202 234 243 271 311 322 345 339 339 302 268 238 224 210 206 203 203 204 203 204 205 200 198 199 199 199 197 201 201 204 205 201 197 196
269 178 197 296 151 215 238 27 253 178 48 15 0 355 351 340 324 300 332 337 307 307 262 239 210 210 216 213 209 212 206 202 200 200 200 202 194 197 196 195 195 194 192 193
219 176 241 231 216 319 76 26 9 24 63 19 360 353 347 335 311 76 360 350 6 15 11 13 14 349 282 220 213 207 206 205 201 202 203 203 199 195 194 193 192 192 191 190
215 211 202 211 235 236 10 322 315 306 106 12 7 2 355 349 19 352 342 357 4 16 15 3 357 351 335 323 223 203 206 205 203 210 209 209 204 200 197 197 193 196 198 196
12 311 230 236 250 83 331 330 304 186 49 7 357 2 359 0 336 335 339 359 8 11 10 5 2 6 356 341 265 216 215 212 219 222 218 215 210 206 204 200 198 196 195 193
15 332 356 338 302 190 347 33 69 12 27 351 349 349 349 350 351 352 352 356 359 1 4 5 4 5 10 8 348 294 255 241 233 229 221 219 214 210 207 203 199 198 195 193
263 43 303 332 35 101 69 102 119 120 2 323 319 330 339 343 350 351 351 354 355 357 359 1 1 359 5 3 2 347 322 296 264 235 221 221 219 215 211 204 202 197 199 202
158 175 264 356 84 219 113 127 120 321 4 350 335 325 337 336 341 341 340 346 350 353 356 355 358 357 354 354 354 350 347 322 300 252 226 224 220 217 215 213 211 206 203 205
211 195 232 244 5 44 137 96 31 1 10 351 339 336 337 332 335 336 330 336 338 342 346 352 352 347 343 345 347 355 353 349 321 288 244 230 226 223 219 219 218 218 222 218
235 250 182 343 67 2 359 44 50 5 341 352 347 329 331 327 327 334 326 329 330 334 337 341 341 338 336 340 342 350 352 350 344 317 283 249 236 232 226 223 226 231 237 234